Location: Pinhead Observatory
(34.4473°N, 118.1985°W)
Time: 17:45:53
(UTC-08:00)

Daily predictions for brighter satellites

Satellite Brightness Start Highest point End
(mag) Time Altitude Azimuth Time Altitude Azimuth Time Altitude Azimuth
CZ-2C R/B 3.3 17:02:59 10° S 17:07:50 57° W 17:12:51 10° NNW
Cosmos 1816 Rocket 4.5 17:02:24 10° N 17:08:30 69° E 17:14:38 10° SSE
CSL-04 Rocket 3.6 17:05:19 10° SSE 17:10:33 70° ENE 17:15:52 10° N
Cosmos 1763 Rocket 3.7 17:05:55 10° N 17:10:57 48° ENE 17:15:51 10° SE
Cosmos 1725 Rocket 4.4 17:05:15 10° SSW 17:11:30 70° W 17:17:46 10° N
Cosmos 1782 3.8 17:09:40 10° SSE 17:13:06 27° E 17:16:32 10° NNE
YAOGAN 1 3.4 17:09:57 10° SE 17:13:36 28° ENE 17:17:17 10° NNE
GENESIS II 4.2 17:11:10 10° NNW 17:15:03 62° ENE 17:18:53 10° SE
Cosmos 2082 Rocket 3.4 17:11:45 10° N 17:15:54 20° ENE 17:20:01 10° ESE
USA 116 4.0 17:12:05 10° NNE 17:16:16 49° E 17:19:56 10° S
COSMO-SKYMED 1 3.6 17:13:08 10° NE 17:16:49 27° E 17:20:30 10° SSE
ERS-2 3.3 17:16:33 10° ESE 17:19:25 22° ENE 17:22:17 10° NNE
Cosmos 405 Rocket 4.4 17:18:17 10° SE 17:20:32 15° E 17:22:46 10° NE
SL-27 R/B 3.5 17:18:40 10° NNE 17:21:21 22° ENE 17:24:01 10° ESE
Meteor 1-25 Rocket 4.5 17:15:43 10° N 17:21:22 49° ENE 17:26:56 10° SSE
GPS 2-05 Rocket1 3.7 17:23:04 10° SW 17:25:59 35° SSE 17:28:41 12° E
Cosmos 1814 Rocket 4.0 17:20:39 10° NNW 17:26:02 77° ENE 17:31:22 10° SSE
OAO 3 Rocket 4.3 17:23:29 10° SW 17:27:55 35° SSE 17:32:07 11° E
MTI 4.1 17:26:31 10° NNE 17:29:36 43° E 17:32:41 10° S
Cosmos 2221 Rocket 4.2 17:26:12 10° SSE 17:30:10 34° E 17:34:09 10° NNE
Cosmos 1503 Rocket 4.2 17:26:48 10° S 17:31:54 51° ESE 17:36:58 10° NNE
Tiangong 1 3.0 17:31:00 10° SSE 17:32:10 12° SE 17:33:14 10° ESE
Cosmos 1703 Rocket 3.6 17:30:19 10° S 17:34:44 67° E 17:39:10 10° NNE
Ariane Rocket 3.3 17:30:41 10° S 17:35:46 75° WSW 17:40:52 10° NNW
BREEZE-M R/B 3.7 17:33:30 10° NNW 17:36:03 25° NE 17:38:43 15° E
Cosmos 540 Rocket 4.2 17:32:35 10° N 17:37:09 31° ENE 17:41:40 10° SE
CZ-2C R/B 3.8 17:34:58 10° N 17:39:29 80° WNW 17:44:03 10° SSW
Cosmos 304 Rocket 3.8 17:35:26 10° NNW 17:40:15 88° W 17:45:02 10° SSE
OAO 3 Copernicus 4.3 17:35:57 10° W 17:41:03 88° N 17:45:14 15° E
Cosmos 841 Rocket 3.4 17:41:20 10° NNW 17:46:38 79° ENE 17:51:52 10° SSE
Cosmos 1633 2.6 17:44:56 10° N 17:48:32 53° E 17:52:06 10° SSE
USA 234 3.2 17:42:56 11° NE 17:49:16 76° SE 17:55:47 10° SW
Meteor 1-10 Rocket 4.2 17:44:52 10° S 17:50:25 64° E 17:56:07 10° NNE
Okean 2 Rocket 3.7 17:48:38 10° NNE 17:52:46 34° E 17:56:53 10° SE
FENGYUN 3A 4.0 17:51:23 10° SE 17:56:26 41° ENE 18:01:28 10° N
Cosmos 44 4.2 17:56:50 10° N 18:00:51 27° NE 18:01:26 26° ENE
Cosmos 1908 Rocket 4.2 17:59:32 10° NNW 18:03:47 56° W 18:08:00 10° S
BREEZE-M DEB (TANK) 3.0 17:58:06 10° WNW 18:04:52 65° SW 18:07:23 15° SE
SKYMED 2 3.7 18:00:37 10° N 18:04:58 78° WNW 18:09:17 10° SSW
Cosmos 1464 Rocket 3.9 18:00:01 10° S 18:06:07 83° E 18:12:16 10° N
ERBS 4.3 18:06:04 10° WNW 18:09:06 30° WSW 18:12:09 10° S
Cosmos 2369 Rocket 4.0 18:06:04 10° SE 18:07:10 13° SE 18:07:10 13° SE
ALOS 2.3 18:04:58 10° SSE 18:09:31 56° ENE 18:14:06 10° N
Cosmos 1354 Rocket 4.3 18:05:18 10° SSW 18:10:33 67° WNW 18:15:48 10° NNE
Cosmos 1833 Rocket 2.6 18:06:22 10° NNW 18:11:56 62° ENE 18:17:29 10° SSE
Cosmos 2297 4.0 18:06:22 10° SSW 18:12:02 71° WNW 18:17:46 10° NNE
SPOT 3 Rocket 3.4 18:07:56 10° SSE 18:13:07 71° ENE 18:18:19 10° N
Cosmos 2278 Rocket 4.2 18:12:14 10° WSW 18:16:52 25° WNW 18:21:31 10° N
CZ-4 R/B 3.5 18:14:53 10° SSW 18:18:16 28° W 18:21:36 10° NW
Cosmos 1441 Rocket 3.1 18:18:58 10° S 18:22:55 85° E 18:24:32 34° N
Meteor 1-11 Rocket 3.8 18:18:59 10° N 18:24:42 55° E 18:30:16 10° SSE
Okean 1-7 4.3 18:23:02 10° SSW 18:27:10 41° W 18:31:20 10° N
USA 229 DEB 3.8 18:27:15 10° S 18:33:40 49° ESE 18:35:11 42° ENE
USA 229 3.8 18:27:22 10° S 18:33:47 49° ESE 18:35:13 42° E
NOAA 12 4.1 18:29:04 10° S 18:34:23 82° WSW 18:39:43 10° NNW
Meteor 2-20 Rocket 4.3 18:32:38 10° N 18:38:41 62° E 18:44:39 10° SSE
Thor Agena Rocket 3.4 18:48:43 63° NNE 18:49:33 86° ESE 18:54:42 10° SSW
CZ-4C R/B 3.0 18:47:11 10° NNW 18:54:19 52° NE 18:54:35 52° ENE
Cosmos 2082 Rocket 3.0 18:54:47 10° NNW 19:00:15 49° WSW 19:05:38 10° S
MOS 1-B Rocket 4.4 18:59:46 10° SSE 19:06:45 79° ENE 19:15:02 10° N
OAO 3 Rocket 4.0 19:06:17 10° WSW 19:09:56 50° WSW 19:09:56 50° WSW
FengYun 1-2 T 4.3 19:07:23 10° S 19:12:51 71° WSW 19:18:24 10° NNW
Cosmos 44 Rocket 4.4 19:09:37 10° NW 19:12:42 38° NW 19:12:42 38° NW
Cosmos 2369 Rocket 4.2 19:47:19 10° SW 19:49:01 20° SW 19:49:01 20° SW
